Orbital Elements at Epoch 2459000.5 (2020-May-31.0) TDB
Reference: JPL 34 (heliocentric ecliptic J2000)
Element | Value | Uncertainty (1-sigma) | Units |
e | .1737626590896115 | 3.0502e-08 | |
a | 2.538248959106794 | 8.5443e-09 | au |
q | 2.097196070540959 | 7.5993e-08 | au |
i | 8.024786594654014 | 3.6434e-06 | deg |
node | 343.4411876314228 | 3.0501e-05 | deg |
peri | 159.7669807626406 | 3.3444e-05 | deg |
M | 68.34394046957303 | 1.479e-05 | deg |
tp | 2458720.087566532591 (2019-Aug-24.58756653) | 6.0582e-05 | TDB |
period | 1477.065491902825 4.04 | 7.4582e-06 2.042e-08 | d yr |
n | .243726498231457 | 1.2307e-09 | deg/d |
Q | 2.979301847672629 | 1.0029e-08 | au |
|
| | Orbit Determination Parameters
Additional Information
|